Lid_Strength_Index
14 13 15 15 15 15 14 15 16 16 16 17 15 15 14 13 14 13 13 13 13 13 12 12 12 12 13 13 13 13 13 12 12 11 11 12 13 13 12 12 12 12 12 12
14 17 17 16 16 16 15 16 15 16 16 17 16 16 14 14 14 13 12 13 13 13 13 13 12 12 13 13 13 13 13 13 12 11 11 11 11 12 12 12 12 12 12 12
15 18 17 17 17 16 17 16 17 17 16 16 17 15 15 14 13 13 12 11 12 12 13 13 13 13 12 13 13 13 12 12 12 12 11 11 11 11 12 12 12 12 12 12
17 17 17 17 18 17 18 17 17 17 17 17 16 18 14 14 15 14 13 12 12 12 12 12 12 12 12 12 11 12 12 12 12 12 11 12 12 13 13 12 12 12 12 12
19 18 18 18 18 17 18 17 17 17 17 18 18 18 13 16 13 13 12 12 11 11 11 12 12 12 11 11 11 11 11 11 12 12 12 11 12 12 12 12 12 12 12 12
18 17 17 18 18 17 16 16 17 17 17 18 19 18 15 13 12 12 13 11 11 11 11 11 11 11 11 10 10 10 11 11 11 12 12 12 12 12 12 12 12 12 12 12
19 19 18 17 17 16 16 17 17 18 18 18 19 19 15 12 11 12 12 11 11 10 11 11 11 11 11 11 10 10 11 11 11 11 11 12 12 12 12 12 12 12 12 12
17 19 19 18 18 17 18 17 16 20 19 18 19 19 13 12 12 12 12 12 11 10 10 10 10 10 10 10 10 10 10 11 11 11 11 11 11 11 11 11 11 11 12 12
18 20 19 18 18 18 18 18 17 19 24 20 16 15 12 12 12 12 12 12 12 11 10 10 10 10 10 10 10 10 10 10 10 11 11 11 11 11 11 11 11 11 12 12
18 20 20 19 18 17 18 17 19 18 21 21 18 18 15 12 12 11 11 11 11 11 10 10 10 10 10 9 9 9 9 10 10 10 10 10 10 11 11 11 11 12 12 12
18 16 21 20 20 19 20 19 20 18 18 19 20 16 11 13 12 12 11 11 11 11 11 10 10 9 10 9 9 10 10 10 10 10 10 10 10 10 11 11 11 11 12 12
17 16 20 20 20 19 19 18 17 17 20 20 20 17 12 12 12 12 12 11 11 11 10 10 10 10 10 10 10 10 10 10 9 9 10 10 10 10 11 11 11 11 12 12
17 18 19 20 20 20 21 20 18 19 19 20 18 16 14 13 12 12 12 11 11 12 12 11 11 11 10 10 10 10 10 10 9 10 10 10 10 10 11 11 11 11 12 12
16 20 18 17 17 19 22 21 19 18 19 18 19 16 13 11 11 11 12 12 11 11 12 12 11 11 11 10 10 10 10 10 10 10 10 10 10 10 10 10 11 11 11 12
18 20 24 22 21 21 20 22 21 21 17 18 15 16 13 12 12 13 12 12 12 11 12 12 12 11 11 11 10 10 10 10 10 10 10 10 10 10 10 11 11 11 11 12
22 21 26 23 22 21 23 22 21 19 18 17 17 17 12 12 12 13 13 13 13 12 11 11 12 11 11 11 10 11 10 11 11 11 11 10 11 11 11 11 11 11 12 12
21 23 22 20 23 22 22 23 21 19 18 17 18 15 12 14 14 13 13 13 13 13 12 12 11 11 11 10 10 11 10 10 11 11 11 11 11 11 11 11 11 12 12 12
24 22 22 20 24 23 17 19 18 18 17 17 16 15 15 15 14 14 13 13 13 12 12 12 11 11 10 10 11 11 11 11 11 11 11 11 12 12 12 12 12 12 12 12
21 21 24 22 22 19 17 20 20 20 16 16 16 15 14 15 15 13 14 14 13 12 12 11 10 11 11 11 11 11 12 12 12 13 12 12 13 13 13 13 12 12 12 12
22 21 19 26 23 23 18 19 18 18 18 17 16 15 15 16 14 13 14 14 13 12 12 12 12 12 12 12 12 12 13 13 15 15 14 14 14 14 14 13 13 12 12 12
23 22 23 23 22 20 17 18 18 19 17 17 16 16 16 15 14 15 14 14 14 14 13 13 14 15 15 15 14 15 15 17 17 16 16 16 15 15 14 14 13 13 13 13
23 23 24 24 24 24 18 19 18 16 17 16 16 16 16 15 15 15 16 16 16 17 17 16 16 17 18 18 17 17 18 18 19 18 18 17 17 16 15 15 14 14 14 15
21 18 21 20 19 17 17 16 16 16 16 16 16 16 16 15 16 16 17 18 19 19 19 18 18 19 21 20 20 20 20 20 21 21 20 19 18 17 16 16 15 15 15 15
20 20 19 19 17 17 17 16 17 17 17 18 18 19 18 18 18 18 18 19 19 19 20 19 19 20 21 21 21 21 21 22 22 22 21 19 18 17 17 16 15 15 14 15
18 19 19 19 18 17 18 18 18 19 19 19 20 20 20 19 20 20 20 20 20 20 21 21 21 21 21 21 21 21 22 22 22 22 21 19 18 17 17 16 15 15 14 14
19 18 18 17 16 16 20 21 19 20 20 20 20 21 21 21 22 21 21 21 22 22 22 22 22 23 22 22 22 22 23 23 24 22 20 19 19 18 17 16 15 13 12 11